Find Naxing-2

NORAD ID: 40905 Int'l Des: NNA 2015-049 Owner: TSHUA Country: CN operational
LEOCIRCULARRETROGRADE

实时位置

正在加载3D地球...

关于 Naxing-2

正在加载描述...

即将过境

Passes for default location (London). Set your location on the main map for personalized predictions.

高度历史

Loading altitude history...

两行轨道根数

1 40905U 15049G 26105.92535697 .00022612 00000-0 26083-3 0 9992
2 40905 97.4639 146.4580 0007198 93.1063 267.1019 15.61919332586716
Epoch: Apr 15, 2026 • Age: 9 hours

当前状态

高度 396.5 km
速度 7.67 km/s
星下点 -31.08°S, 162.6°W
发射日期 Sep 19, 2015
运行时间 10.5 years
类型 other

技术详情

分类 Payload
质量 20.00 kg
干质量 20.00 kg
总质量 20.00 kg
长度 0.40 m
直径 0.40 m
跨度 0.40 m
形状 Box
制造商 TSHUA
阶段状态 In Orbit
所有者/国家 TSHUA/CN

Most Searched